Regional Weather Roundup
Issued by NWS Sterling, VA

Home | Current Version | Previous Version | Text Only | Print | Product List | Glossary On
Versions: 1 2 3 4 5 6 7 8 9 10 11 12 13 14 15 16 17 18 19 20 21 22 23 24 25 26 27 28 29 30 31 32 33 34 35 36 37 38 39 40 41 42 43 44 45 46 47 48 49 50
000
ASUS41 KLWX 061610
RWRLWX

REGIONAL WEATHER ROUNDUP
NATIONAL WEATHER SERVICE BALTIMORE MD/WASHINGTON DC
1100 AM EST TUE DEC 06 2016

Note: "FAIR" indicates few or no clouds below 12,000 feet
with no significant weather and/or obstructions to visibility.
 TC=TEMPERATURE CELSIUS

 * =Non NWS site. Station does not report precipitation (e.g. rain,
    snow, etc.), thunder, or fog.

DCZ001-MDZ009-015-VAZ040>042-051-053>054-061700-
WASHINGTON METRO

CITY           SKY/WX    TMP DP  RH WIND       PRES   REMARKS
WASHINGTON NAT LGT RAIN  43  37  79 NE10      30.05F
DULLES         LGT RAIN  40  35  83 CALM      30.05F
ANDREWS AFB    LGT RAIN  42  35  79 NE8       30.02F
FT BELVOIR     LGT RAIN  41  37  84 CALM      30.05F
QUANTICO       LGT RAIN  42  36  79 NE10      30.06F
COLLEGE PARK*  CLOUDY    41  34  75 NE3       30.04F
LEESBURG*      RAIN      39  39 100 MISG      30.06F
MANASSAS*      RAIN      39  39 100 CALM      30.07F FOG
GAITHERSBURG*  CLOUDY    39  34  81 E3        30.08F

$$

MDZ006>007-011-014-061700-
BALTIMORE METRO

CITY           SKY/WX    TMP DP  RH WIND       PRES   REMARKS
BWI AIRPORT    LGT RAIN  41  35  79 E8        30.07F
MD SCIENCE CTR   N/A     44  30  57 MISG      30.09F
MARTIN STATE   CLOUDY    45  34  65 CALM      30.10F
ANNAPOLIS      LGT RAIN  45  34  65 E6        30.07F
FORT MEADE*    CLOUDY    41  36  81 NE3       30.08F

$$

MDZ012-015-019>023-061700-
MARYLAND EASTERN SHORE

CITY           SKY/WX    TMP DP  RH WIND       PRES   REMARKS
OCEAN CITY     LGT RAIN  50  42  74 E10       30.04F
SALISBURY      CLOUDY    48  42  80 E9        30.02F
BAY BRIDGE AP* LGT RAIN  43  34  70 E6        30.06F
CAMBRIDGE*     PTSUNNY   43  37  81 NE8       30.02F
EASTON*        CLOUDY    45  34  65 E7        30.09F

$$

MDZ017>025-061700-
SOUTHERN MARYLAND

CITY           SKY/WX    TMP DP  RH WIND       PRES   REMARKS
PATUXENT RIVER LGT RAIN  43  38  82 E9        30.02F
ST INIGOES     LGT RAIN  45  42  89 N6        30.01F FOG
LEONARDTOWN*   CLOUDY    41  37  87 CALM      30.03F

$$

MDZ003>005-061700-
NORTH CENTRAL MARYLAND

CITY           SKY/WX    TMP DP  RH WIND       PRES   REMARKS
FREDERICK*     LGT RAIN  39  36  87 N3        30.10F
HAGERSTOWN APT LGT RAIN  41  29  62 SE12      30.03F
WESTMINSTER*   LGT RAIN  39  30  70 SE7       30.04F

$$

MDZ501>502-061700-
WESTERN MARYLAND

CITY           SKY/WX    TMP DP  RH WIND       PRES   REMARKS
OAKLAND*       FOG       30  30 100 SE9       29.83F VSB 1/2 WCI  22
CUMBERLAND*    NOT AVBL

$$

VAZ025>031-061700-
SHENANDOAH VALLEY

CITY           SKY/WX    TMP DP  RH WIND       PRES   REMARKS
WINCHESTER*    RAIN      36  34  93 CALM      30.03F
FRONT ROYAL*   CLOUDY    37  36  93 CALM      30.02F
LURAY*         LGT RAIN  37  37 100 CALM      30.01F
NEW MARKET*    CLOUDY    38  35  90 N3        30.00F
STAUNTON*      RAIN      37  35  93 NE5       29.99F
WAYNESBORO*    CLOUDY    36  34  92 E6        29.96F

$$

WVZ021-048>050-054>055-061700-
EASTERN WEST VIRGINIA PANHANDLE

CITY           SKY/WX    TMP DP  RH WIND       PRES   REMARKS
MARTINSBURG    LGT RAIN  38  35  89 E3        30.04F FOG
PETERSBURG*    LGT RAIN  38  37  95 CALM      29.99F

$$

VAZ036>039-050-061700-
CENTRAL FOOTHILLS

CITY           SKY/WX    TMP DP  RH WIND       PRES   REMARKS
CHARLOTTESVILL LGT RAIN  40  36  86 NE8       30.02F FOG
CULPEPER*      LGT RAIN  41  39  94 CALM      30.05F
ORANGE*        LGT RAIN  41  39  93 CALM      30.04F
GORDONSVILLE*  CLOUDY    39  38  94 NE6       30.02F FOG
WARRENTON*     LGT RAIN  41  35  80 NE3       30.03F

$$

VAZ055>057-061700-
NORTH AND CENTRAL PIEDMONT

CITY           SKY/WX    TMP DP  RH WIND       PRES   REMARKS
FREDERICKSBRG* LGT RAIN  42  40  96 NE3       30.04F
STAFFORD*      LGT RAIN  40  38  93 NE5       30.08F

$$

NCZ024-NYZ072-PAZ021-071-VAZ022-071-061700-
OTHER REGIONAL OBSERVATIONS

CITY           SKY/WX    TMP DP  RH WIND       PRES   REMARKS
NEW YORK CITY  CLOUDY    46  30  53 VRB5      30.13F
PHILADELPHIA   CLOUDY    43  31  62 E12       30.08F
PITTSBURGH     LGT RAIN  40  34  79 SE14      29.80F
ROANOKE        RAIN      41  38  89 E10       29.95F FOG
RICHMOND       LGT RAIN  42  41  96 N10       29.98F FOG
RALEIGH        LGT RAIN  47  45  93 E10G18    29.86F VSB 1

$$

ANZ530>537-061700-
MARINE OBSERVATIONS

STATION/POSITION TIME  TEMP    WIND        PRES
                       AIR SEA DIR/SP/G
                 (UTC) (F)     (DEG/KT/KT) (MB)
THOMAS PT LIGHT  1600   43 48   60/ 12/ 14   N/A
BALT KEY BRIDGE  1548   42      80/  7/  8 1018.9F
COVE POINT       1548   42      90/ 13/ 16 1017.1F
LEWISETTA        1548   46 48   90/ 14/ 18 1015.8F
SOLOMONS ISLAND  1548   43 50   50/  8/ 11   N/A
PINEY POINT      1548           80/  7/  9   N/A

$$




USA.gov is the U.S. government's official web portal to all federal, state and local government web resources and services.